Location: Monrovia
(34.7865°N, 86.7139°W)
Time: 00:37:52
(UTC+00:00)

IDEFIX/ARIANE 42P - Pass Details

Date: 14 July 2020
Orbit: 784 x 804 km, 98.4° (Epoch: 12 August)

Event Time Altitude Azimuth Distance (km) Brightness Sun altitude
Rises 08:39:12 0° 17° (NNE) 3,283 6.9 -21.2°
Reaches altitude 10° 08:41:34 10° 21° (NNE) 2,349 6.0 -20.9°
Maximum altitude 08:46:41 59° 101° (E) 900 2.9 -20.1°
Enters shadow 08:49:47 23° 173° (S) 1,595 3.8 -19.7°
